Terug naar catalogus

SL-14 DEB

ActiefPO
NORAD 17272·DEBRIS·🇷🇺 Russia

Gelanceerd Dec 18, 1986 vanaf Plesetsk Cosmodrome

Loading…

Volgende Passages (komende 24 uur)

TLE

VersSource: Space-Track

Epoch: Sep 14, 2026, 13:12 UTC

1 17272U 86101G   26257.55002908  .00000556  00000-0  30143-3 0  9996
2 17272  82.4887 197.1265 0019064 352.8209   7.2690 14.10841155 30375

Volg SL-14 DEB in realtime met AllMySat

Download on the App Store